Temperature
21 21 21 20 18 17 19 20 20 20 20 20 20 19 19 18 18 17 17 17 18 18 18 18 18 18 18 18 18 18 18 18 18 18 18 18 18 18 17 18 17 17 18 18 18 18 18 18 18
21 21 21 20 17 18 19 20 20 21 21 20 20 19 19 18 17 17 17 17 18 18 18 17 18 18 18 18 18 18 18 18 18 18 18 17 17 17 17 17 17 17 17 17 17 17 17 17 18
21 21 20 17 18 18 19 20 20 21 21 21 20 19 19 18 18 17 17 18 18 18 18 18 18 18 18 18 18 18 18 18 18 18 17 17 17 17 17 17 17 17 17 17 17 17 17 17 17
21 21 20 18 19 19 20 20 21 21 21 20 20 19 18 18 18 18 18 18 18 18 18 18 17 18 18 18 18 18 17 17 17 17 17 17 17 17 17 17 17 17 17 17 17 17 17 17 17
21 21 18 18 19 20 20 21 21 20 20 20 19 18 18 18 18 18 18 18 18 18 18 17 17 18 18 18 17 17 17 17 17 17 17 17 17 17 17 17 17 17 17 17 17 17 17 17 17
21 18 17 18 19 19 20 21 21 20 19 19 19 18 17 18 18 18 18 18 18 18 18 18 17 18 18 17 17 17 17 17 17 17 17 17 17 17 17 17 17 17 17 17 17 17 17 17 17
20 17 18 18 19 19 20 21 20 20 19 19 19 18 18 18 18 18 18 18 18 18 18 18 18 18 18 17 17 17 17 17 17 17 17 17 17 16 16 16 16 16 17 17 17 17 17 17 17
21 17 18 18 19 19 21 21 20 20 19 20 19 18 18 18 18 18 18 18 18 18 18 18 18 18 18 17 17 17 17 17 17 17 17 16 16 16 16 16 16 16 16 16 16 17 17 17 17
21 17 18 19 19 19 21 21 20 20 20 20 20 19 19 18 18 18 18 18 18 18 18 18 18 17 17 17 17 17 17 17 17 17 17 16 16 16 16 16 16 16 16 16 16 17 17 17 17
20 17 19 20 19 20 21 20 20 20 19 19 19 19 19 18 18 18 18 18 18 18 18 18 18 18 17 17 17 17 17 17 17 17 16 16 16 16 16 16 16 16 16 16 16 17 17 17 17
20 18 19 20 21 21 21 20 20 19 18 19 19 19 19 19 18 18 18 18 18 18 18 18 18 18 17 17 17 17 17 17 17 17 16 16 16 16 16 16 16 16 16 16 16 17 17 17 17
20 20 21 21 22 21 20 20 20 20 20 20 20 19 19 19 19 19 18 18 18 18 18 18 18 18 17 17 17 17 17 17 17 17 16 16 16 16 16 16 16 16 16 16 16 16 16 16 17
19 20 21 21 21 21 21 20 20 20 20 20 20 19 19 19 19 19 19 19 18 18 18 18 18 18 17 17 17 17 17 17 17 16 16 16 16 16 16 16 16 16 16 16 16 16 16 16 16
20 20 21 21 21 21 20 20 20 19 20 20 20 20 20 19 19 19 19 19 19 18 18 18 18 17 17 17 17 17 17 17 16 16 16 16 16 16 16 16 16 16 16 16 16 16 16 16 16
21 20 20 20 21 21 20 19 19 19 20 19 19 20 19 19 19 19 19 19 19 18 18 18 18 17 17 17 17 17 17 17 16 16 16 16 16 16 16 16 16 16 16 16 16 16 16 16 16
20 19 18 20 20 21 20 18 19 20 20 19 19 20 19 19 19 19 19 19 19 18 18 18 18 17 17 17 17 17 17 16 16 16 16 16 16 16 16 16 16 15 16 16 16 16 16 16 16
18 18 18 19 20 20 19 18 18 19 20 19 19 19 19 19 19 19 19 19 19 18 18 18 18 17 17 17 17 17 16 16 16 16 16 16 16 16 16 16 15 15 15 15 15 16 16 16 16
18 18 19 19 19 20 19 18 18 19 19 19 19 19 19 19 19 19 19 19 19 18 18 18 17 17 17 17 17 16 16 16 16 16 16 16 16 15 15 15 15 15 15 15 15 15 15 16 16
19 19 19 19 20 19 19 18 18 19 19 19 19 19 19 19 19 19 19 19 19 18 18 18 17 17 17 17 17 16 16 16 16 16 16 16 15 15 15 15 15 15 15 15 15 15 15 16 16
20 19 19 19 20 20 18 19 19 19 19 19 19 19 19 19 19 19 19 19 19 18 18 18 17 17 17 17 17 16 16 16 16 16 15 15 15 15 15 15 15 15 15 15 15 15 15 15 15
20 19 19 19 20 19 19 18 19 19 20 20 20 20 20 19 19 19 19 19 19 18 18 18 18 17 17 17 17 16 16 16 16 15 15 15 15 15 15 15 15 15 15 15 15 15 15 15 15
20 20 20 20 19 17 19 17 18 18 18 19 19 19 19 20 19 19 19 19 19 18 18 18 18 17 17 17 17 16 16 16 16 15 15 15 15 15 15 15 15 15 15 15 15 15 15 15 15
20 21 20 20 18 18 18 17 17 18 18 18 19 19 20 20 20 19 19 19 19 18 18 18 18 17 17 17 17 16 16 16 16 16 15 15 15 15 15 15 15 15 15 15 14 14 14 14 14
21 20 19 18 17 17 18 17 17 17 18 19 19 19 20 20 20 19 19 19 19 18 18 18 18 17 17 17 17 17 16 16 16 16 15 15 15 15 15 15 15 14 14 14 14 14 14 14 14
20 17 17 17 16 17 18 18 18 18 19 20 19 19 20 20 20 19 19 19 19 18 18 18 18 17 17 17 17 17 16 16 16 16 16 15 15 15 15 15 15 14 14 14 14 14 14 14 14
19 18 17 17 17 17 18 18 19 20 21 21 21 20 20 20 20 19 19 19 19 18 18 18 18 17 17 17 17 17 17 16 16 16 16 16 15 15 15 15 14 14 14 14 14 14 14 14 14
19 18 18 17 17 17 18 18 19 20 19 20 20 20 20 20 20 20 19 19 19 19 18 18 18 18 17 17 17 17 17 16 16 16 16 16 15 15 15 15 14 14 14 14 14 14 14 14 14
20 18 16 17 17 17 18 18 18 19 19 19 19 19 20 20 20 20 20 19 19 19 18 18 18 18 17 17 17 17 17 16 16 16 16 16 15 15 15 15 14 14 14 14 14 14 14 14 13
20 19 17 16 16 17 17 18 20 19 19 19 19 20 20 20 20 20 20 19 19 19 18 18 18 18 17 17 17 17 16 16 16 16 16 16 15 15 15 15 14 14 14 14 14 14 13 13 13
20 20 18 17 17 17 17 18 20 20 20 20 20 20 20 20 20 20 20 19 19 19 18 18 18 18 17 17 17 17 17 16 16 16 16 15 15 15 15 14 14 14 14 14 14 14 13 13 13
Wind_Speed
5 3 2 3 5 5 3 1 2 3 5 5 8 9 9 7 5 6 3 7 9 7 9 13 15 15 16 16 16 17 17 16 16 16 15 14 14 13 13 12 12 12 11 11 10 10 10 10 10
2 1 3 4 5 4 2 1 6 6 7 8 9 9 9 8 6 7 5 9 9 9 10 12 15 16 16 15 15 16 15 15 15 15 14 13 13 12 12 12 12 11 11 10 10 9 9 9 9
2 0 3 4 4 4 3 3 6 7 6 6 6 6 5 5 5 5 7 11 10 9 11 13 15 15 15 15 14 14 14 14 14 13 13 12 11 11 11 11 10 10 9 9 9 8 8 8 8
2 4 5 5 5 1 4 5 7 7 6 6 7 7 5 4 4 8 11 11 10 8 10 13 15 15 15 14 14 13 13 13 12 12 11 11 10 10 10 9 9 8 8 8 7 7 7 7 7
4 5 6 4 3 2 3 4 6 8 5 7 9 8 5 4 10 13 11 11 11 8 10 13 14 14 14 13 13 12 12 11 11 10 10 9 8 8 8 8 7 7 7 6 6 6 6 6 6
4 5 5 4 3 2 3 5 10 11 10 9 8 7 4 5 10 10 11 10 10 9 10 12 14 13 13 12 12 11 10 10 9 8 7 6 6 5 5 6 5 5 6 5 5 5 5 5 6
4 4 3 4 4 3 3 3 7 9 8 5 5 6 4 5 7 9 10 9 8 9 9 9 11 11 12 11 10 10 9 8 7 6 5 4 3 3 3 3 3 4 4 4 5 6 6 6 6
5 5 3 2 5 3 2 4 6 9 6 5 5 7 6 6 7 8 8 8 7 7 6 7 7 8 8 8 8 8 7 5 4 3 3 2 2 1 0 1 2 3 4 5 6 6 7 7 6
4 5 3 2 5 2 3 6 4 5 7 4 4 6 8 11 9 8 8 7 5 6 4 5 5 6 6 5 5 5 4 2 2 1 2 1 0 1 2 3 3 4 5 7 8 8 8 7 6
5 4 2 2 5 5 6 8 6 6 8 7 8 8 10 10 10 10 9 8 7 6 5 4 4 4 5 4 4 3 2 2 3 2 2 2 1 1 2 4 4 6 7 8 9 9 8 6 5
4 4 2 3 5 7 7 5 4 9 7 8 12 11 10 9 9 9 8 8 8 7 6 5 5 5 5 4 5 4 4 3 4 4 4 4 3 3 3 4 6 7 8 8 9 9 8 5 3
3 3 3 4 6 6 6 4 5 6 7 8 11 11 9 9 9 9 8 7 7 7 6 6 5 5 5 5 4 4 4 4 4 5 6 5 4 4 4 3 5 6 6 6 7 6 7 6 5
3 2 5 6 8 9 10 7 6 4 7 10 11 10 8 8 8 7 7 7 7 7 6 6 6 5 5 4 3 4 4 4 5 6 7 8 5 3 3 4 6 6 7 6 5 5 5 5 5
3 5 5 5 7 6 9 6 5 4 9 11 10 8 8 8 8 7 7 7 7 6 6 6 7 5 6 4 3 3 5 7 8 8 8 9 8 5 4 4 5 6 8 7 6 5 4 4 4
4 6 5 3 4 4 8 6 4 4 9 10 8 7 7 6 7 8 8 8 8 7 6 7 7 6 6 4 4 5 6 9 8 8 10 10 9 8 6 4 4 6 8 9 8 7 6 5 5
3 4 2 1 3 3 7 4 2 4 9 8 6 6 6 6 7 7 7 7 8 8 7 6 7 7 6 5 5 6 7 8 8 9 10 11 10 10 8 4 4 7 8 7 4 4 4 5 5
3 3 3 1 1 3 5 5 4 4 8 8 7 6 6 6 6 6 7 8 8 9 8 7 7 7 6 6 6 7 7 7 8 9 9 10 10 11 8 5 5 7 6 5 4 4 3 4 4
3 3 3 3 2 5 5 4 5 6 8 8 7 6 7 8 7 7 8 8 8 8 8 7 7 7 6 5 5 5 5 4 7 8 8 9 10 10 8 6 6 7 4 5 4 4 4 3 3
4 4 4 2 3 5 6 5 6 6 7 8 7 7 7 7 6 7 8 8 8 7 7 7 7 5 5 4 3 3 2 2 3 4 7 8 9 9 8 5 5 5 4 4 4 3 5 5 4
5 4 3 2 4 4 4 4 5 7 9 10 11 10 9 7 7 7 8 7 7 7 7 7 6 5 5 3 3 3 3 2 2 2 5 7 7 7 6 5 3 4 4 6 6 4 3 4 5
3 5 6 4 2 3 5 1 4 5 6 8 10 11 10 11 11 9 8 7 8 8 8 8 6 6 5 4 4 4 4 3 3 3 2 3 6 6 6 5 4 4 4 4 4 4 4 3 4
2 4 6 6 4 2 4 3 6 6 7 9 10 11 10 11 11 10 9 9 9 8 7 8 7 6 5 5 6 5 4 2 1 0 1 2 5 5 7 6 5 4 3 3 3 4 3 3 3
4 3 4 4 4 1 1 3 6 5 8 10 12 12 12 12 12 12 11 10 9 8 8 7 7 6 5 5 6 6 4 2 1 2 3 3 4 5 6 6 5 3 3 3 4 4 4 3 3
4 4 5 5 4 1 5 5 6 7 12 12 12 12 13 12 12 11 9 9 7 7 7 7 7 5 5 6 6 6 6 5 4 3 3 2 2 3 4 5 4 3 3 3 3 3 4 3 3
5 5 3 3 2 5 4 4 7 9 10 13 15 14 13 13 12 11 11 10 8 9 8 8 8 6 5 6 5 5 5 5 5 4 3 2 2 2 2 3 3 2 3 3 3 4 4 3 3
4 7 6 4 4 4 1 4 6 6 8 10 12 13 13 13 12 13 13 11 10 10 9 9 8 6 6 6 5 4 5 4 3 4 4 3 2 1 1 2 3 3 4 5 4 4 3 4 4
5 4 6 5 2 1 3 3 5 1 5 8 11 12 13 14 14 14 13 11 11 11 10 10 9 7 6 6 5 4 5 5 4 4 3 3 2 1 2 3 3 4 4 4 4 4 4 4 4
5 6 5 4 3 1 3 3 4 5 7 10 12 13 13 13 13 13 12 12 10 10 8 8 8 8 7 6 6 5 4 5 5 5 4 3 2 2 3 3 3 3 4 4 4 4 3 4 4
3 3 4 4 4 4 2 6 6 10 10 13 14 14 15 15 14 13 12 11 10 9 9 8 8 7 6 6 5 6 5 4 4 4 4 3 2 2 3 3 3 4 3 3 4 4 4 4 4
6 6 6 4 3 4 3 6 6 8 10 12 13 13 13 15 14 13 12 11 10 9 9 8 8 7 7 6 6 6 5 5 5 4 3 3 3 2 2 3 3 3 3 3 4 4 4 4 4
Wind_Direction
309 328 81 61 55 56 66 39 123 84 73 69 73 81 83 68 88 119 152 132 122 116 110 108 106 102 99 96 94 94 94 93 91 90 88 85 81 78 76 75 75 72 69 65 61 59 56 53 50
321 349 65 58 79 81 48 83 86 84 125 119 84 76 76 71 81 109 124 130 122 119 116 115 111 106 102 99 97 97 95 93 91 90 89 86 82 78 75 72 70 69 65 61 58 56 52 49 45
311 92 77 65 89 130 135 130 105 93 95 93 86 60 66 90 100 118 140 133 121 116 117 119 115 110 106 103 100 99 98 95 93 91 89 87 84 79 74 71 67 66 62 58 54 52 48 41 39
53 45 55 70 81 142 150 147 120 102 62 58 95 72 61 73 114 134 136 130 123 120 122 122 119 114 110 107 105 104 102 99 96 94 91 89 85 79 74 71 68 65 59 55 49 44 40 32 30
66 70 61 64 69 46 101 117 100 90 78 73 87 91 72 58 111 128 132 132 130 130 130 129 125 121 117 114 111 110 108 105 102 98 94 90 85 80 74 72 67 60 53 47 40 32 28 21 18
55 66 82 92 96 62 65 100 98 92 99 94 91 97 88 111 123 133 134 136 137 138 137 134 131 130 126 124 122 119 117 114 108 102 99 97 91 84 79 75 65 55 47 36 25 17 15 12 7
98 87 102 125 114 88 107 105 100 110 105 98 109 94 108 112 131 133 131 134 140 142 139 139 139 137 135 134 132 128 126 124 119 114 108 105 104 93 85 75 60 44 31 17 6 1 355 353 357
120 97 76 91 109 103 125 97 106 109 108 124 112 121 144 157 138 125 126 127 134 140 140 144 145 144 143 145 144 138 134 134 129 130 128 118 115 101 35 342 0 12 3 351 345 340 340 345 351
84 79 95 135 128 136 114 99 98 92 100 85 87 124 146 145 130 123 123 117 128 136 147 155 158 159 163 164 155 145 135 119 107 104 117 127 43 313 296 307 321 339 343 341 339 335 334 340 350
81 104 166 167 149 134 104 104 116 95 89 88 92 106 130 133 132 133 137 137 144 151 163 166 164 169 169 162 129 122 97 75 70 67 65 66 66 296 293 323 340 348 354 352 351 347 345 345 349
108 138 141 106 126 120 105 95 97 115 114 143 140 140 137 136 136 140 144 142 150 152 155 160 158 158 153 130 118 109 92 76 52 49 55 54 55 45 23 11 1 0 1 3 5 10 7 8 12
88 101 128 118 109 105 108 108 84 109 152 152 141 139 134 138 145 147 146 145 141 138 144 148 141 135 130 119 111 105 92 73 49 43 58 67 61 51 35 23 14 13 7 9 15 18 20 27 38
93 102 97 99 96 102 101 97 101 110 127 129 130 133 142 141 145 146 147 140 132 125 127 133 131 125 112 103 99 93 81 75 64 57 62 72 72 62 54 40 35 29 29 29 24 23 27 32 39
142 113 87 96 99 100 103 96 89 120 130 131 134 136 139 140 141 139 139 134 130 127 128 121 116 111 107 100 100 94 85 78 67 59 62 69 71 66 57 44 36 27 29 34 39 33 28 27 36
100 94 76 87 107 110 97 77 108 144 131 132 140 139 135 142 143 149 152 145 139 134 128 118 117 105 101 97 94 88 85 82 69 61 63 63 66 66 64 50 35 25 32 36 39 33 30 29 28
64 75 88 19 116 115 101 134 194 153 135 137 142 140 137 141 147 151 146 141 135 127 121 117 119 106 99 93 90 87 84 79 70 63 61 63 65 68 67 56 36 36 41 36 34 30 29 24 21
47 121 150 193 149 120 114 157 200 167 146 152 156 151 140 134 135 143 141 140 133 129 124 115 111 106 100 94 90 84 80 75 72 65 62 64 63 67 70 60 42 42 40 28 29 31 31 21 10
175 146 150 173 188 130 130 167 181 177 161 168 164 156 148 142 148 143 136 134 130 127 120 116 111 107 101 90 78 68 61 57 65 66 67 67 63 65 67 60 42 45 41 24 26 30 26 25 7
148 137 140 176 180 139 155 173 185 185 168 171 167 166 163 160 156 141 135 134 126 120 118 121 119 116 109 97 92 85 69 52 50 63 70 69 67 66 65 58 45 45 47 32 29 33 27 17 13
133 132 142 161 192 143 157 192 196 189 186 181 176 177 176 162 149 146 141 141 135 134 130 127 127 124 120 123 127 124 117 90 74 59 57 63 65 63 65 60 49 46 49 36 33 40 35 17 26
164 172 175 166 124 94 117 285 241 215 194 186 182 180 178 169 161 158 151 143 139 143 147 142 137 131 128 120 99 81 65 52 39 36 26 30 58 57 60 62 61 53 56 43 33 45 57 32 14
196 196 168 155 126 188 165 204 253 216 203 194 189 184 184 171 163 162 159 154 153 156 152 141 140 135 131 121 115 117 117 121 164 143 44 29 49 55 60 66 66 58 52 45 36 52 55 66 33
184 180 167 162 138 101 195 170 262 201 207 205 193 186 184 176 168 166 167 163 158 152 148 146 138 135 134 127 128 123 120 130 110 78 69 46 28 39 50 64 66 55 44 43 42 47 49 58 62
132 67 51 53 83 253 223 182 254 209 206 198 193 184 181 176 168 165 163 155 150 145 142 142 138 139 140 132 134 135 135 130 116 103 92 57 29 17 29 50 54 49 42 41 42 47 52 52 58
105 93 56 21 6 254 229 190 245 228 204 191 186 181 179 176 166 163 163 162 158 153 152 148 143 142 142 135 136 144 142 140 142 141 130 114 71 33 15 39 39 35 36 48 50 48 42 41 48
168 140 155 179 216 273 280 224 261 253 197 180 176 172 171 173 170 171 173 169 165 162 158 154 151 150 149 143 143 139 136 135 140 144 140 139 140 140 54 55 52 46 49 49 48 46 40 43 40
141 169 172 145 172 258 282 286 312 21 146 162 165 167 174 177 176 176 174 172 169 167 166 163 157 155 158 155 141 132 134 136 137 135 128 132 139 129 85 68 55 47 51 51 54 50 37 43 40
151 153 111 124 152 239 289 254 234 219 188 177 174 178 180 178 178 176 174 174 173 169 166 163 159 162 163 158 151 143 142 141 136 126 125 123 121 97 84 68 65 56 50 49 53 44 30 44 30
153 141 133 138 160 156 243 269 229 204 193 185 188 184 178 177 179 177 176 175 169 163 163 166 166 159 157 155 144 132 137 135 123 119 128 128 115 107 100 89 81 69 52 44 55 48 42 44 28
177 182 156 156 210 169 178 266 266 201 192 184 186 184 180 178 177 174 172 168 165 168 169 170 168 163 163 156 142 140 139 129 119 121 128 122 113 111 110 100 86 74 59 51 59 53 47 52 40
Height
1515 1514 1513 1514 1517 1527 1530 1525 1520 1518 1519 1520 1519 1520 1523 1527 1531 1539 1537 1536 1537 1538 1538 1538 1538 1538 1539 1539 1539 1539 1539 1539 1539 1539 1539 1539 1539 1539 1539 1539 1538 1538 1538 1538 1537 1537 1537 1536 1536
1514 1514 1514 1514 1524 1537 1534 1524 1521 1518 1520 1520 1521 1523 1525 1529 1531 1534 1535 1537 1538 1538 1539 1539 1540 1540 1540 1540 1540 1541 1541 1541 1541 1541 1541 1541 1541 1540 1540 1540 1539 1539 1539 1538 1538 1538 1537 1537 1537
1514 1514 1515 1517 1527 1534 1532 1524 1520 1520 1520 1520 1523 1526 1528 1532 1534 1535 1537 1538 1538 1539 1540 1541 1541 1542 1542 1542 1542 1542 1542 1542 1542 1542 1542 1542 1542 1541 1541 1541 1540 1540 1539 1539 1539 1538 1538 1538 1538
1514 1515 1516 1523 1528 1525 1523 1522 1519 1520 1521 1522 1524 1529 1532 1535 1535 1536 1538 1539 1540 1541 1542 1542 1543 1543 1544 1544 1544 1544 1544 1544 1544 1544 1544 1543 1543 1543 1542 1542 1541 1541 1540 1540 1539 1539 1539 1539 1539
1514 1515 1522 1529 1528 1524 1521 1521 1520 1520 1523 1526 1526 1531 1535 1537 1537 1538 1539 1541 1541 1542 1543 1544 1545 1545 1545 1546 1546 1546 1546 1546 1545 1545 1545 1545 1545 1544 1544 1543 1542 1542 1541 1540 1540 1540 1540 1540 1539
1515 1517 1530 1535 1530 1525 1523 1522 1522 1524 1527 1529 1530 1533 1538 1539 1539 1540 1541 1542 1543 1544 1545 1546 1546 1547 1547 1548 1548 1548 1548 1548 1548 1547 1547 1547 1546 1546 1545 1544 1544 1543 1542 1542 1541 1541 1541 1541 1541
1517 1522 1530 1531 1531 1528 1525 1524 1524 1526 1528 1531 1532 1534 1538 1540 1541 1542 1543 1544 1545 1546 1547 1548 1549 1549 1550 1550 1550 1550 1550 1550 1549 1549 1549 1549 1548 1547 1547 1546 1546 1545 1544 1543 1543 1543 1542 1542 1542
1516 1522 1529 1531 1530 1529 1525 1525 1527 1527 1530 1532 1533 1535 1539 1541 1543 1544 1545 1546 1547 1548 1549 1550 1551 1551 1551 1552 1552 1552 1552 1551 1551 1551 1550 1550 1549 1549 1548 1548 1547 1547 1546 1545 1545 1544 1544 1543 1543
1517 1526 1533 1530 1529 1528 1525 1526 1529 1530 1531 1533 1534 1535 1539 1542 1544 1545 1547 1548 1549 1550 1550 1551 1552 1553 1553 1553 1553 1553 1553 1553 1553 1552 1552 1551 1551 1550 1550 1549 1549 1548 1547 1547 1546 1545 1545 1544 1544
1518 1529 1528 1524 1524 1525 1525 1527 1530 1532 1533 1535 1537 1539 1541 1543 1545 1546 1548 1548 1549 1550 1552 1553 1554 1554 1555 1555 1555 1555 1555 1554 1554 1553 1553 1552 1552 1551 1551 1550 1550 1549 1548 1548 1547 1546 1545 1545 1544
1519 1525 1523 1523 1523 1524 1526 1529 1530 1532 1536 1536 1537 1540 1542 1545 1546 1547 1549 1550 1550 1551 1553 1554 1555 1556 1556 1556 1556 1556 1556 1556 1555 1554 1554 1553 1553 1552 1552 1551 1551 1550 1549 1549 1548 1547 1546 1546 1545
1521 1523 1523 1524 1524 1525 1528 1530 1532 1532 1535 1537 1539 1541 1543 1546 1547 1549 1550 1551 1552 1553 1554 1555 1556 1557 1557 1558 1558 1558 1557 1557 1556 1555 1555 1554 1554 1553 1553 1552 1552 1551 1550 1549 1549 1548 1547 1546 1546
1524 1524 1524 1525 1526 1527 1529 1532 1533 1535 1537 1539 1541 1543 1545 1546 1548 1550 1551 1552 1553 1554 1555 1556 1557 1558 1558 1559 1559 1559 1558 1558 1557 1556 1556 1555 1555 1554 1553 1553 1552 1551 1551 1550 1549 1549 1548 1547 1547
1524 1525 1526 1527 1528 1530 1531 1534 1536 1539 1539 1541 1542 1544 1546 1547 1549 1551 1552 1553 1554 1555 1556 1557 1558 1559 1559 1560 1560 1560 1559 1559 1558 1558 1557 1556 1556 1555 1554 1553 1552 1552 1551 1550 1549 1549 1548 1548 1547
1525 1527 1530 1530 1530 1532 1533 1539 1539 1540 1541 1542 1544 1545 1547 1548 1550 1551 1553 1554 1555 1556 1557 1558 1559 1559 1560 1560 1561 1561 1560 1560 1559 1559 1558 1557 1556 1555 1555 1554 1553 1552 1551 1550 1550 1549 1549 1548 1548
1527 1533 1538 1533 1532 1533 1537 1547 1541 1541 1542 1544 1545 1546 1548 1549 1550 1552 1554 1555 1556 1557 1558 1559 1559 1560 1560 1561 1561 1561 1561 1561 1560 1560 1559 1558 1557 1556 1555 1554 1553 1553 1552 1551 1550 1549 1549 1548 1548
1535 1541 1541 1537 1532 1533 1538 1544 1541 1541 1542 1544 1546 1547 1548 1550 1551 1553 1554 1556 1557 1558 1559 1559 1560 1561 1561 1562 1562 1562 1562 1562 1561 1561 1560 1559 1558 1557 1556 1554 1554 1553 1552 1551 1550 1550 1549 1548 1548
1541 1541 1540 1539 1534 1534 1539 1542 1541 1541 1542 1544 1546 1547 1548 1550 1551 1553 1555 1556 1557 1559 1559 1560 1561 1562 1562 1562 1563 1563 1563 1563 1562 1561 1561 1560 1559 1558 1556 1555 1554 1554 1553 1552 1551 1550 1549 1549 1548
1532 1536 1540 1537 1533 1536 1539 1541 1540 1541 1542 1544 1545 1547 1548 1550 1552 1553 1555 1556 1558 1559 1560 1561 1561 1562 1563 1563 1564 1564 1564 1563 1563 1562 1562 1561 1560 1558 1557 1556 1555 1554 1554 1553 1552 1551 1550 1549 1549
1531 1537 1539 1537 1534 1536 1541 1542 1539 1539 1540 1541 1543 1545 1547 1550 1552 1553 1555 1556 1557 1559 1560 1561 1562 1562 1563 1564 1564 1564 1564 1564 1564 1564 1563 1562 1561 1559 1558 1557 1556 1555 1555 1554 1553 1552 1551 1550 1549
1531 1535 1537 1538 1535 1536 1542 1547 1542 1539 1540 1541 1542 1544 1546 1548 1550 1552 1554 1556 1557 1559 1560 1561 1562 1563 1564 1564 1565 1565 1565 1565 1565 1565 1564 1563 1562 1561 1559 1558 1558 1557 1556 1555 1554 1553 1552 1551 1551
1534 1528 1529 1534 1542 1549 1546 1559 1546 1539 1539 1539 1541 1543 1545 1547 1549 1551 1553 1555 1557 1558 1560 1561 1562 1563 1564 1565 1565 1565 1566 1566 1566 1565 1564 1564 1563 1562 1561 1560 1559 1558 1557 1556 1556 1555 1554 1553 1552
1528 1525 1528 1533 1541 1549 1547 1555 1549 1539 1540 1537 1537 1539 1542 1545 1547 1550 1552 1554 1556 1558 1560 1561 1563 1564 1564 1565 1566 1566 1566 1566 1566 1566 1565 1565 1564 1563 1562 1561 1560 1560 1559 1558 1557 1556 1555 1554 1553
1524 1528 1532 1539 1546 1557 1547 1552 1550 1539 1533 1532 1534 1536 1539 1543 1545 1548 1551 1554 1556 1558 1559 1561 1562 1563 1564 1565 1566 1566 1567 1567 1567 1566 1566 1565 1565 1564 1563 1562 1562 1561 1560 1559 1558 1557 1556 1555 1554
1527 1541 1556 1559 1563 1559 1542 1545 1541 1525 1521 1523 1528 1532 1536 1540 1543 1547 1550 1552 1555 1557 1559 1560 1562 1563 1564 1565 1566 1567 1567 1567 1567 1567 1567 1566 1566 1565 1564 1563 1563 1562 1561 1560 1559 1558 1557 1557 1556
1529 1537 1556 1564 1564 1556 1542 1543 1531 1517 1516 1519 1524 1529 1533 1538 1541 1544 1547 1550 1553 1555 1557 1559 1561 1563 1564 1565 1566 1567 1567 1567 1568 1567 1567 1567 1566 1566 1565 1564 1564 1563 1562 1561 1560 1559 1558 1557 1556
1529 1535 1535 1547 1550 1555 1548 1536 1524 1516 1516 1519 1523 1527 1531 1535 1538 1542 1545 1549 1551 1554 1556 1558 1560 1562 1564 1565 1566 1567 1567 1568 1568 1568 1568 1567 1567 1566 1566 1565 1565 1564 1563 1562 1561 1560 1559 1558 1557
1521 1527 1539 1547 1556 1560 1549 1541 1536 1523 1519 1519 1522 1525 1528 1532 1536 1540 1543 1547 1550 1553 1555 1558 1560 1561 1563 1564 1566 1567 1567 1568 1568 1568 1568 1568 1567 1567 1567 1566 1565 1565 1564 1563 1562 1561 1560 1559 1558
1524 1527 1533 1542 1546 1556 1557 1545 1517 1516 1514 1516 1519 1522 1525 1529 1533 1537 1541 1545 1548 1551 1554 1557 1559 1561 1562 1564 1565 1566 1567 1568 1568 1568 1568 1568 1568 1567 1567 1567 1566 1565 1564 1563 1562 1561 1560 1559 1558
1516 1521 1529 1542 1544 1545 1550 1541 1508 1509 1510 1512 1516 1519 1523 1526 1531 1535 1539 1543 1546 1549 1552 1555 1557 1559 1561 1563 1564 1566 1567 1567 1568 1568 1568 1568 1568 1567 1567 1567 1566 1565 1564 1563 1562 1561 1560 1559 1558